GFSSE_sfc_dewp_273.txt.gz
Dewpoint
71 72 75 75 75 74 74 74 75 75 74 74 74 73 73 74 73 72 73 72 72 72 72 72 73 72 73 73 73 73 74 75 74 74 74 74 74 74 74 74 73 69 73
70 72 75 75 75 74 75 75 74 75 74 74 74 73 73 73 72 73 73 73 72 73 73 73 73 73 73 74 74 74 74 74 74 74 74 74 74 74 74 74 73 73 74
69 71 73 76 75 74 74 75 75 74 74 74 74 74 73 73 73 73 73 73 72 74 73 73 73 73 73 73 73 73 74 73 73 73 73 69 71 74 74 74 74 74 73
69 70 71 76 75 74 74 74 75 74 74 75 74 74 74 74 74 74 74 73 73 74 74 73 73 73 73 73 73 73 74 75 75 74 70 69 68 72 73 73 73 73 73
70 70 71 76 75 74 74 74 74 75 73 73 75 74 74 75 75 74 74 74 74 73 73 73 73 73 73 72 73 73 73 74 74 71 72 72 69 71 72 73 73 73 72
69 68 73 75 74 74 74 75 74 74 73 73 74 74 74 74 74 74 74 74 74 74 74 73 73 73 72 72 73 73 73 73 73 70 71 72 71 73 73 72 72 73 73
68 68 71 76 76 74 75 75 74 73 74 72 72 74 74 74 74 74 73 73 74 73 73 73 73 73 73 73 73 73 73 73 70 70 70 71 70 74 73 73 73 73 73
68 67 69 75 76 74 75 75 75 75 74 74 73 73 72 73 73 73 74 73 73 73 73 73 73 73 73 72 72 71 72 71 69 69 67 70 72 74 73 73 73 72 72
69 67 68 71 75 74 75 74 75 75 75 75 74 74 74 74 73 73 72 72 73 73 73 72 72 73 73 73 73 72 73 72 71 69 65 69 73 74 72 74 74 72 71
69 67 68 70 72 73 70 74 75 75 75 74 73 74 74 73 73 73 73 73 72 72 71 72 73 72 73 73 73 73 72 72 70 69 67 67 72 73 72 73 73 72 72
69 68 68 70 73 75 73 75 75 75 75 75 74 74 74 73 74 73 72 73 73 73 73 72 72 72 73 74 74 73 72 68 69 68 67 70 72 73 73 73 73 73 73
67 68 69 70 71 72 72 74 75 74 74 75 73 74 75 74 75 73 72 70 70 71 73 73 73 73 73 74 70 72 68 68 69 68 67 70 71 73 73 72 73 74 74
65 67 69 70 72 72 73 71 73 74 73 73 74 74 74 72 70 69 69 68 71 71 73 71 70 70 72 71 73 70 69 70 68 67 69 70 71 72 72 72 73 73 73
64 66 67 69 72 72 72 72 75 74 73 72 72 74 72 70 68 68 67 68 68 67 67 69 68 70 72 72 71 70 71 70 69 68 69 71 71 71 72 72 71 71 74
62 64 66 70 73 73 74 73 73 74 73 73 72 73 72 71 69 66 66 66 66 65 65 69 69 69 70 69 68 71 71 72 72 69 68 72 72 72 71 72 71 72 72
63 64 66 69 72 73 73 74 73 72 74 75 73 73 74 72 69 67 67 66 65 67 67 67 71 70 69 68 69 71 71 70 71 72 69 69 73 73 73 72 72 73 72
65 67 68 69 70 73 73 74 73 72 72 72 72 73 73 73 72 71 69 67 66 67 70 70 69 70 73 73 70 71 71 71 71 69 71 68 69 73 73 73 73 73 73
67 69 70 68 69 71 72 72 72 71 71 72 72 72 72 73 74 73 70 68 67 68 68 68 68 70 69 70 68 73 71 71 71 71 71 70 68 68 71 73 74 74 73
67 69 70 70 69 70 72 71 71 72 71 71 73 73 72 73 73 73 73 71 70 68 70 70 69 71 70 72 70 73 71 71 70 68 70 69 68 69 69 71 73 74 73
66 68 70 70 71 72 71 71 70 70 70 72 72 73 71 72 72 73 72 71 70 69 70 69 71 73 72 73 71 70 70 70 71 69 70 68 68 69 69 71 70 70 73
65 67 69 69 71 71 70 69 69 68 70 71 74 73 73 72 73 71 71 71 71 70 72 72 73 72 71 73 70 70 69 69 68 70 69 71 71 69 69 69 70 69 69
62 66 68 69 70 70 69 69 69 70 70 71 73 73 73 73 72 71 72 71 71 70 72 72 72 69 70 73 71 70 66 66 69 68 71 71 71 71 70 70 70 71 71
61 64 66 69 70 70 71 71 71 72 71 71 73 72 73 73 72 73 73 73 72 72 71 74 72 70 69 70 71 70 65 64 66 66 68 69 70 69 69 71 71 71 71
59 61 65 67 69 69 71 71 71 67 67 68 70 71 72 73 73 73 74 73 74 73 73 72 72 71 69 68 70 71 70 68 65 64 67 67 68 68 67 69 68 70 70
60 61 63 68 70 71 72 72 69 67 67 68 69 68 71 72 72 72 73 74 74 73 73 72 72 72 70 69 69 69 69 68 68 68 65 68 67 67 66 67 70 69 69
61 61 63 69 70 71 72 70 68 67 66 66 67 67 68 70 73 73 73 73 73 73 73 73 72 73 71 71 70 71 69 68 67 67 66 66 65 67 67 68 67 66 68

GFSSE_sfc_dewp_276.txt.gz
Dewpoint
70 71 75 75 74 74 74 74 74 74 74 74 73 73 73 73 73 73 73 73 73 73 72 72 73 73 73 73 72 73 75 74 75 75 75 74 73 74 74 73 74 67 74
68 70 75 76 75 74 74 74 74 74 74 74 74 74 74 73 72 73 73 73 73 73 73 73 73 73 74 73 73 74 75 74 74 74 74 73 73 74 74 74 75 73 73
67 70 72 76 75 75 75 74 74 74 74 74 74 74 73 73 73 73 73 73 73 74 74 73 73 74 74 74 74 74 74 74 74 73 72 67 69 73 74 74 74 74 74
66 68 70 76 76 74 75 75 74 74 74 74 74 73 73 73 73 73 73 73 73 74 74 73 73 74 74 74 74 74 74 73 73 72 68 65 64 73 73 73 74 72 73
66 68 72 76 75 74 74 74 74 74 74 74 74 73 73 74 74 74 74 74 74 74 74 74 73 73 74 74 73 74 75 75 74 71 68 68 64 71 73 72 73 72 72
64 65 74 75 74 74 74 74 75 74 72 74 74 74 73 74 74 74 74 74 74 73 74 73 73 73 73 73 73 72 74 74 73 67 68 69 68 74 73 71 72 73 73
62 65 70 76 74 74 75 75 74 74 72 73 74 74 74 73 74 73 73 74 74 73 73 73 73 73 73 73 73 73 74 73 68 68 67 65 68 74 72 72 73 73 72
61 64 68 75 74 74 75 75 74 74 73 72 72 73 74 74 74 73 73 72 72 71 72 73 73 73 73 73 72 73 73 73 68 68 67 66 73 74 73 73 73 73 72
61 63 65 68 74 74 75 75 75 75 74 75 73 73 72 72 72 72 72 73 73 72 73 72 71 73 73 73 73 72 72 72 70 68 62 67 73 74 73 73 74 72 72
61 61 64 66 70 68 71 74 75 74 74 73 74 73 73 72 72 72 73 73 71 71 71 72 72 73 73 73 73 73 73 73 68 69 65 67 73 73 73 73 74 73 71
62 61 62 65 68 70 69 71 74 75 74 75 74 74 74 74 73 73 73 73 72 72 72 72 72 72 73 74 73 73 72 65 63 65 66 72 71 73 72 73 74 73 72
62 61 64 66 66 71 67 72 73 72 73 73 74 73 74 71 72 74 73 71 70 70 72 73 73 73 73 69 69 74 67 62 63 63 66 71 71 74 73 73 74 73 73
60 62 63 66 69 68 68 68 68 70 70 71 74 75 73 75 73 70 70 69 71 71 68 69 69 68 66 67 73 66 64 65 63 61 65 72 71 72 73 73 73 75 74
59 61 62 64 69 69 68 68 74 75 70 68 73 73 75 73 70 70 65 64 65 63 64 67 65 67 68 69 68 69 68 65 64 63 65 73 72 72 73 73 74 73 74
59 61 62 64 71 71 73 70 71 71 70 66 68 69 72 68 68 66 66 64 65 64 63 64 65 66 68 67 65 67 68 69 70 66 66 74 73 73 72 72 73 74 72
59 61 61 64 69 71 71 74 72 70 68 73 72 74 73 68 67 66 66 66 65 65 65 66 66 68 70 65 65 67 68 69 72 72 68 67 74 74 73 73 73 74 73
59 61 63 64 66 71 72 73 72 70 69 68 69 74 74 72 70 74 75 71 66 67 69 68 68 67 67 71 67 66 70 72 72 70 73 71 69 74 74 73 74 74 75
61 64 67 65 66 68 70 71 70 69 69 68 68 73 71 73 74 75 74 76 69 67 68 69 71 67 66 66 66 67 73 71 67 71 72 72 71 68 73 74 74 75 73
64 67 69 70 69 69 72 71 71 71 70 69 69 72 73 73 73 74 76 75 74 68 75 71 68 71 72 70 70 69 71 73 70 68 68 71 69 69 65 73 74 74 73
64 67 69 69 71 72 71 72 70 68 69 69 70 70 74 74 72 72 75 73 74 71 72 75 70 75 72 70 71 69 71 70 70 70 69 70 69 68 67 68 70 70 74
64 66 69 70 72 72 71 70 68 68 70 73 73 74 74 73 72 73 72 72 73 71 70 73 74 72 74 76 73 72 74 71 69 69 67 70 69 68 67 70 68 66 69
63 66 69 71 72 73 71 73 71 70 69 70 71 73 73 73 74 73 73 72 75 75 72 73 74 74 73 72 70 71 67 71 69 68 67 70 69 71 71 70 69 69 68
61 63 67 70 72 73 73 71 71 72 72 71 71 71 72 74 74 74 74 74 75 76 72 75 73 73 69 71 71 70 67 66 67 71 68 68 70 69 70 70 70 70 71
59 61 65 69 71 72 73 71 72 68 68 68 69 70 71 73 73 73 74 74 75 76 76 75 73 72 73 70 71 70 71 71 65 66 70 72 72 71 71 72 68 69 70
59 60 62 68 71 71 73 73 71 71 68 68 68 69 71 74 74 72 73 74 74 73 76 75 74 73 72 73 73 69 71 71 68 66 64 68 70 69 68 70 68 68 69
60 61 62 69 72 72 73 73 73 71 70 67 68 66 67 71 71 71 71 73 74 74 74 75 75 74 75 73 70 72 69 70 69 66 68 69 66 68 70 70 66 67 68

GFSSE_sfc_dewp_279.txt.gz
Dewpoint
69 70 75 75 75 74 74 74 74 73 73 73 73 73 73 72 73 73 71 71 72 72 72 73 73 73 72 72 73 74 74 75 75 75 74 73 74 74 73 72 75 69 74
68 70 75 76 75 75 75 75 75 75 74 74 74 74 74 73 73 73 73 72 72 72 72 73 72 73 73 73 73 74 74 74 74 74 74 74 74 74 75 75 75 70 73
66 69 72 76 75 75 74 74 74 74 74 74 74 74 73 73 73 73 73 73 73 73 73 72 72 73 73 73 74 74 74 74 74 74 74 68 70 74 74 75 75 74 74
65 67 70 76 76 75 74 74 74 74 74 74 74 73 73 73 73 73 73 73 74 73 73 73 73 74 74 74 74 74 73 73 73 73 72 70 65 74 74 74 73 73 74
63 65 72 76 75 75 75 75 74 75 74 74 74 73 73 73 74 73 73 73 74 73 73 73 73 73 74 73 73 74 74 74 73 72 69 71 67 72 73 73 72 73 72
62 66 74 75 74 75 75 74 74 73 74 74 74 74 73 73 74 74 74 74 73 74 74 73 73 73 74 73 72 74 75 73 73 68 69 69 72 74 73 72 73 73 73
61 67 71 76 74 74 74 74 75 72 73 74 74 73 74 73 74 74 74 74 73 73 73 73 73 73 73 73 73 72 73 72 69 65 66 62 71 74 72 72 73 73 71
60 64 70 74 74 74 76 75 73 73 72 73 74 74 75 74 73 73 72 73 72 72 73 73 73 73 73 73 73 73 74 73 66 65 65 66 75 74 72 73 73 73 71
59 62 65 67 72 74 76 74 74 74 73 73 72 72 72 73 72 73 73 73 73 72 73 72 71 72 73 72 72 72 73 73 69 68 62 65 75 74 73 73 74 72 72
58 60 63 64 66 69 72 74 75 74 75 75 75 75 74 73 73 73 73 72 71 71 71 72 72 72 73 73 72 73 72 73 67 72 63 67 75 73 73 73 74 73 71
58 58 60 63 66 68 70 72 74 74 74 73 73 74 73 72 73 71 72 73 73 72 72 72 72 72 73 73 73 73 73 66 61 64 66 74 74 72 71 73 74 74 72
58 58 61 63 63 66 63 73 72 72 71 71 72 74 73 71 71 69 71 71 70 71 71 73 73 73 73 66 70 73 68 62 59 58 68 74 72 72 73 73 74 73 73
57 58 61 62 65 65 65 66 67 67 67 70 71 73 68 68 66 71 67 66 67 70 66 68 70 70 66 70 72 68 69 71 66 64 66 74 72 71 74 73 74 74 74
57 58 60 62 67 65 64 65 67 70 68 65 68 72 71 71 70 68 65 63 64 66 68 68 64 69 71 67 70 70 67 64 64 68 70 74 74 72 73 74 75 75 74
55 58 59 63 70 69 70 67 67 66 65 66 68 67 69 65 66 67 71 66 66 67 68 71 68 66 71 69 64 68 68 66 70 69 65 74 71 73 72 73 74 75 74
57 58 59 62 69 70 70 73 72 68 66 71 72 72 73 67 67 70 72 72 70 71 70 72 71 70 68 66 68 68 65 71 74 73 70 68 71 73 73 73 74 74 74
58 60 61 62 64 70 71 71 72 69 68 68 66 70 72 69 69 75 76 69 70 73 71 71 72 71 68 66 66 67 70 70 71 68 73 70 72 71 73 74 74 75 74
58 61 63 61 62 67 70 71 70 69 68 69 68 69 72 74 75 74 71 75 72 76 70 73 69 68 68 69 69 68 74 72 71 69 71 72 70 68 71 73 74 74 74
59 63 65 66 65 68 73 70 70 71 69 69 68 72 73 71 72 72 70 72 76 75 77 73 75 75 74 69 67 68 72 73 71 68 70 70 71 70 69 72 74 74 74
60 64 67 67 71 71 70 72 70 68 68 69 69 69 74 75 74 72 71 75 73 76 73 74 73 75 73 74 72 72 73 74 71 70 69 67 68 70 69 69 75 72 74
61 64 67 69 72 71 70 70 70 68 68 69 69 73 75 74 74 73 71 73 73 72 73 74 74 72 72 72 70 71 71 72 71 70 69 68 71 70 70 71 72 74 71
60 63 67 70 73 72 71 72 71 70 69 70 71 73 74 74 74 74 74 73 76 72 73 74 75 74 73 75 68 70 67 70 73 71 70 71 69 70 67 72 72 72 72
59 63 66 71 73 75 75 72 72 72 72 70 71 71 74 74 74 75 75 74 74 77 76 76 75 73 72 75 73 66 66 65 67 69 71 71 69 71 69 70 70 71 73
57 60 65 70 72 73 75 74 75 70 69 68 70 70 71 73 75 75 75 75 76 77 77 76 76 75 75 70 73 70 71 71 67 66 69 70 70 71 72 72 68 69 68
57 58 61 71 75 74 75 76 71 73 69 68 68 70 72 72 74 73 73 74 74 75 75 75 75 74 75 73 74 73 68 69 70 68 65 67 70 71 72 73 71 69 70
56 57 60 69 74 74 74 74 75 73 71 68 68 66 65 72 75 72 71 73 73 75 76 74 75 74 75 74 74 72 68 67 70 69 68 66 67 68 69 71 71 71 72

GFSSE_sfc_dewp_285.txt.gz
Dewpoint
70 73 76 75 75 75 74 74 74 74 74 74 73 73 73 73 73 73 73 72 73 73 73 73 73 73 73 74 74 75 75 75 75 74 73 74 74 74 75 75 74 72 75
70 73 77 77 76 76 75 75 74 74 74 74 73 73 73 73 72 74 73 73 73 73 73 73 73 72 73 73 74 75 75 75 75 74 74 73 73 73 74 75 74 73 74
70 73 74 76 76 75 76 75 75 74 74 74 74 73 73 73 73 73 73 73 73 73 73 73 73 73 73 73 74 74 74 74 74 73 72 66 71 72 73 74 73 73 73
71 72 73 76 76 75 75 76 76 75 75 74 74 73 73 73 73 73 73 73 73 73 73 72 73 73 73 73 74 74 74 74 73 72 67 66 68 72 73 74 73 74 74
69 71 73 77 77 75 75 75 75 75 75 74 74 74 74 74 74 73 74 73 73 73 72 72 73 74 73 73 73 73 74 74 71 66 65 65 66 71 73 74 74 75 73
69 72 76 76 75 75 75 75 74 74 74 74 74 74 75 74 74 74 74 74 73 73 73 73 73 74 73 73 73 73 73 73 70 68 68 68 68 71 72 73 74 73 74
71 73 74 77 77 75 74 75 75 74 74 74 75 74 74 75 75 74 74 74 74 73 73 73 73 73 73 72 72 73 73 71 70 69 70 67 69 74 73 74 74 74 73
71 72 73 76 76 75 75 74 73 75 75 75 74 74 74 74 74 74 74 74 74 74 73 73 73 73 73 73 72 72 72 72 71 69 68 64 70 75 74 74 74 73 72
70 71 72 72 73 75 75 74 72 73 74 75 75 75 75 74 73 73 73 73 72 74 73 74 73 73 73 73 73 73 73 73 70 70 69 70 74 74 73 74 73 72 71
68 69 70 71 72 75 73 73 73 72 73 74 74 74 74 73 74 74 75 75 74 74 73 72 72 73 74 73 73 73 73 73 72 65 67 72 73 75 75 74 73 73 72
66 67 67 68 69 73 73 73 74 74 75 73 73 74 75 71 71 71 73 73 72 72 73 73 73 73 73 74 73 73 73 73 71 71 71 74 73 75 74 75 74 73 72
62 64 65 66 67 71 72 74 74 73 74 73 74 73 73 71 73 72 74 74 73 73 73 73 73 73 73 72 72 73 72 71 70 69 71 73 73 74 73 75 75 74 73
60 62 64 67 67 69 72 73 73 73 73 72 72 73 73 71 69 70 71 72 70 71 69 71 71 73 73 71 72 73 70 69 65 69 70 72 72 72 73 73 75 75 74
57 62 65 64 67 68 70 70 73 73 71 72 72 72 71 67 70 68 67 70 70 68 69 69 69 70 72 72 71 70 68 67 64 68 71 73 73 74 73 73 74 75 74
57 59 62 66 67 69 69 71 69 71 71 71 71 72 71 70 67 66 69 70 69 68 68 69 68 69 71 71 70 70 69 67 67 71 70 73 74 73 72 72 72 74 74
56 57 62 65 68 68 69 71 71 70 69 70 71 71 70 69 67 67 71 70 69 69 69 68 67 67 66 68 68 70 71 70 70 71 72 73 73 73 71 71 72 72 73
56 58 64 67 68 68 70 72 71 70 68 70 71 71 70 69 69 72 71 70 70 71 71 71 70 69 70 68 68 68 71 71 71 70 71 71 72 73 71 71 73 71 71
57 60 66 66 68 69 70 72 72 72 69 69 69 71 71 70 68 71 70 70 70 71 71 71 71 70 70 70 69 69 70 72 71 71 71 71 71 70 72 73 73 73 73
60 62 61 63 68 69 70 71 71 71 71 70 71 71 72 72 71 71 71 71 71 72 72 72 72 70 69 69 69 71 71 71 71 71 71 71 71 71 70 72 74 74 72
62 62 63 63 67 69 72 72 72 71 71 71 72 70 73 73 73 73 72 71 71 72 72 72 70 71 70 69 71 71 70 71 71 71 71 72 71 71 70 70 71 72 72
62 64 65 65 71 70 72 71 70 70 71 71 71 72 75 73 74 73 72 71 71 71 71 72 72 71 71 71 69 68 69 70 70 70 70 71 71 71 70 71 71 72 72
62 63 66 68 71 71 72 71 71 72 73 74 73 74 74 74 73 72 71 71 72 71 72 71 71 71 70 71 68 67 64 66 69 70 70 71 70 71 70 71 71 71 71
61 64 66 69 72 72 72 73 73 73 73 72 72 72 72 73 73 72 73 72 72 72 71 71 71 71 69 70 69 67 63 62 64 67 68 69 70 70 70 71 71 71 71
60 66 68 71 74 73 73 73 72 71 70 71 70 73 73 73 73 71 73 72 72 72 72 72 72 71 70 68 70 70 69 67 63 61 67 67 68 68 68 70 71 71 70
61 63 69 70 74 72 74 72 73 72 72 73 72 71 70 71 71 71 71 71 70 72 72 72 71 70 70 69 68 68 68 68 67 64 62 65 67 68 68 70 70 71 71
61 64 68 71 71 73 74 75 73 73 71 70 70 68 67 70 70 71 71 71 71 72 72 71 71 70 70 70 70 69 67 66 66 65 64 65 64 65 67 68 68 70 71

GFSSE_sfc_dewp_291.txt.gz
Dewpoint
70 73 75 75 74 74 74 73 73 73 73 74 73 73 73 73 73 74 73 73 72 72 72 72 72 72 72 73 72 73 74 74 73 73 74 74 74 73 72 73 73 72 73
71 73 74 75 74 74 74 74 73 74 73 73 73 73 73 72 72 72 72 73 73 73 73 73 73 72 72 71 71 73 74 73 72 73 73 73 74 74 74 74 73 72 73
72 73 73 75 75 74 74 74 74 73 73 74 73 73 73 72 72 72 72 73 73 73 73 73 73 72 72 71 71 72 73 73 74 74 73 71 72 74 74 74 74 73 73
73 73 73 75 75 74 74 74 74 74 73 73 73 73 73 73 73 73 72 72 73 73 73 73 73 73 72 72 72 72 73 74 73 71 68 68 71 73 74 73 73 73 73
73 73 73 75 75 74 74 74 74 74 74 73 73 73 73 73 73 73 73 73 73 73 73 73 73 73 72 72 72 73 72 73 73 67 65 66 69 72 73 72 73 72 73
73 73 75 75 75 75 75 75 74 74 74 73 73 73 73 73 73 73 73 73 73 73 72 73 73 73 73 73 73 73 73 72 70 67 65 66 68 73 73 73 73 72 72
72 73 74 76 75 75 75 75 75 75 73 74 74 74 74 74 73 74 73 73 73 73 72 73 74 73 73 73 72 73 74 72 68 69 67 68 68 73 73 73 73 73 73
72 73 73 75 74 74 74 74 74 74 74 74 74 74 74 74 74 73 73 73 73 73 73 73 73 74 73 73 73 73 71 72 72 69 69 65 69 73 72 73 73 73 73
73 73 72 72 73 75 75 74 74 74 75 74 74 74 75 74 74 74 73 73 73 73 73 73 73 73 73 73 72 71 72 71 70 69 67 65 69 74 74 73 74 73 73
72 73 73 73 72 72 71 74 75 75 75 74 74 74 73 74 74 74 75 73 73 73 73 73 74 73 74 74 73 74 73 73 70 68 68 69 69 74 75 74 74 73 72
71 71 72 72 72 73 71 70 74 75 75 75 75 75 75 72 72 71 73 73 73 73 73 73 73 73 73 73 73 73 73 73 70 69 69 70 71 73 74 74 74 73 72
70 71 71 71 72 72 71 71 70 71 72 71 72 71 72 70 71 73 74 74 74 74 74 74 74 73 73 72 72 73 72 72 72 70 69 70 71 73 73 74 73 73 73
68 70 70 70 72 72 71 72 72 72 73 71 72 72 72 72 71 73 72 72 72 73 72 73 72 72 72 72 72 72 72 72 71 70 70 73 73 73 73 74 73 73 73
66 67 68 69 71 72 71 73 73 73 72 72 72 72 72 71 70 71 71 71 71 70 70 69 70 71 72 72 72 71 72 72 71 69 68 72 74 73 73 73 73 73 73
64 64 66 68 68 71 71 72 73 72 73 72 71 71 71 71 70 68 69 69 70 70 69 69 69 68 69 71 71 71 71 71 69 68 66 68 73 74 74 73 72 73 73
63 64 65 66 67 69 71 71 72 72 72 70 69 70 71 71 70 67 68 69 69 70 70 70 69 69 68 69 70 70 70 70 69 69 70 70 71 73 73 73 72 72 73
62 63 64 65 66 68 70 70 70 71 71 69 69 69 70 71 70 70 68 68 69 70 70 71 71 71 70 70 69 69 71 70 70 69 69 69 70 72 73 73 73 72 71
61 62 64 65 65 67 69 70 69 70 70 70 69 70 70 71 70 69 69 69 69 70 70 69 70 70 69 69 69 70 70 70 71 71 70 71 72 71 72 73 73 73 72
61 62 64 64 66 67 68 70 70 69 69 68 69 70 71 71 71 70 70 71 70 69 70 71 71 70 69 68 69 69 70 70 70 71 71 71 71 71 71 72 73 73 73
59 62 63 64 66 68 70 70 71 70 70 70 70 70 70 71 70 70 70 70 71 70 70 71 71 70 69 69 69 70 70 70 70 69 70 71 71 71 71 71 71 72 73
59 62 63 64 66 67 69 69 69 69 70 70 71 72 71 71 71 70 70 70 71 70 69 70 70 70 70 70 69 68 68 69 69 69 69 70 70 70 71 71 71 71 71
60 62 63 64 66 67 68 68 69 70 70 71 72 73 72 71 71 71 70 71 71 70 70 70 71 70 69 70 67 66 64 65 67 68 69 69 69 70 71 71 71 71 71
59 61 62 63 66 67 68 70 71 71 72 71 71 71 72 72 72 71 71 70 70 70 69 70 70 70 68 69 69 66 62 60 63 65 67 68 68 68 69 70 70 71 71
58 60 61 62 66 67 69 69 70 70 70 71 71 71 71 72 71 70 70 70 69 69 68 69 71 70 69 67 67 69 67 65 64 63 64 66 66 67 67 67 70 71 71
59 59 61 64 67 67 69 69 69 70 70 71 70 70 69 69 70 70 70 69 68 69 69 70 69 68 69 68 66 66 66 66 65 64 63 63 65 66 67 67 68 68 70
61 60 61 65 66 69 70 70 70 70 70 69 68 68 69 68 69 70 70 69 70 70 70 69 69 68 68 68 67 66 65 64 63 64 64 62 62 64 65 66 67 66 69